| time (UTC) | temp C | wind direction | speed KPH | gust KPH | rain 1hr cm | rain 24hr cm | rain mn cm | humidity % | barometer mb |
| 20260504015806 | 8 | 90 | 1.6 | 3.2 | 0.00 | 0.15 | 0.00 | 79 | 1019.3 |
| 20260504015306 | 8 | 349 | 1.6 | 4.8 | 0.00 | 0.15 | 0.00 | 78 | 1019.4 |
| 20260504014806 | 8 | 180 | 1.6 | 3.2 | 0.00 | 0.15 | 0.00 | 78 | 1019.5 |
| 20260504014306 | 8 | 315 | 0.0 | 1.6 | 0.00 | 0.15 | 0.00 | 77 | 1019.5 |
| 20260504013815 | 8 | 90 | 1.6 | 1.6 | 0.00 | 0.15 | 0.00 | 78 | 1019.4 |
| 20260504013306 | 8 | 85 | 1.6 | 1.6 | 0.00 | 0.15 | 0.00 | 78 | 1019.4 |
| 20260504012306 | 8 | 318 | 1.6 | 1.6 | 0.00 | 0.15 | 0.00 | 78 | 1019.5 |
| 20260504011807 | 8 | 0 | 1.6 | 4.8 | 0.00 | 0.15 | 0.00 | 77 | 1019.3 |
| 20260504011306 | 8 | 90 | 1.6 | 1.6 | 0.00 | 0.15 | 0.00 | 78 | 1019.3 |
| 20260504010811 | 8 | 319 | 0.0 | 1.6 | 0.00 | 0.15 | 0.00 | 77 | 1019.5 |
| 20260504010306 | 8 | 90 | 1.6 | 1.6 | 0.00 | 0.15 | 0.00 | 76 | 1019.3 |
| 20260504005806 | 8 | 0 | 0.0 | 3.2 | 0.00 | 0.15 | 0.00 | 76 | 1019.4 |
| 20260504005307 | 9 | 291 | 1.6 | 1.6 | 0.00 | 0.15 | 0.00 | 75 | 1019.3 |
| 20260504004806 | 9 | 90 | 1.6 | 3.2 | 0.00 | 0.15 | 0.00 | 75 | 1019.3 |
| 20260504004306 | 9 | 0 | 0.0 | 3.2 | 0.00 | 0.15 | 0.00 | 74 | 1019.4 |
| 20260504003307 | 10 | 90 | 1.6 | 4.8 | 0.00 | 0.15 | 0.00 | 72 | 1019.3 |
| 20260504002806 | 10 | 11 | 1.6 | 1.6 | 0.00 | 0.15 | 0.00 | 72 | 1019.4 |
| 20260504001806 | 11 | 135 | 0.0 | 1.6 | 0.00 | 0.15 | 0.00 | 72 | 1019.3 |
| 20260504001307 | 11 | 6 | 0.0 | 1.6 | 0.00 | 0.15 | 0.00 | 72 | 1019.4 |
| 20260504000806 | 11 | 225 | 1.6 | 1.6 | 0.00 | 0.15 | 0.00 | 74 | 1019.4 |
| 20260504000307 | 11 | 225 | 1.6 | 1.6 | 0.00 | 0.15 | 0.00 | 74 | 1019.4 |
| 20260503235807 | 11 | 188 | 1.6 | 4.8 | 0.00 | 0.15 | 0.00 | 74 | 1019.5 |
| 20260503235307 | 10 | 270 | 0.0 | 1.6 | 0.00 | 0.15 | 0.00 | 74 | 1019.6 |
| 20260503234307 | 10 | 130 | 0.0 | 4.8 | 0.00 | 0.15 | 0.00 | 73 | 1019.7 |
| 20260503233808 | 10 | 90 | 3.2 | 4.8 | 0.00 | 0.15 | 0.00 | 73 | 1019.8 |
| 20260503233311 | 10 | 4 | 1.6 | 1.6 | 0.00 | 0.15 | 0.00 | 72 | 1019.8 |
| 20260503232807 | 11 | 90 | 0.0 | 1.6 | 0.00 | 0.15 | 0.00 | 72 | 1019.7 |
| 20260503232306 | 11 | 315 | 0.0 | 1.6 | 0.00 | 0.15 | 0.00 | 72 | 1019.9 |
| 20260503231809 | 11 | 102 | 3.2 | 4.8 | 0.00 | 0.15 | 0.00 | 72 | 1019.8 |
| 20260503230806 | 11 | 0 | 1.6 | 1.6 | 0.00 | 0.15 | 0.00 | 72 | 1020.0 |
| 20260503230306 | 11 | 90 | 0.0 | 1.6 | 0.00 | 0.15 | 0.00 | 70 | 1020.1 |
| 20260503225318 | 12 | 90 | 1.6 | 1.6 | 0.00 | 0.15 | 0.00 | 70 | 1020.1 |
| 20260503224816 | 12 | 94 | 0.0 | 1.6 | 0.00 | 0.15 | 0.00 | 70 | 1020.0 |
| 20260503224321 | 11 | 225 | 1.6 | 1.6 | 0.00 | 0.15 | 0.00 | 71 | 1020.0 |
| 20260503222817 | 11 | 11 | 1.6 | 3.2 | 0.00 | 0.15 | 0.00 | 74 | 1019.9 |
| 20260503222325 | 10 | 180 | 1.6 | 3.2 | 0.00 | 0.15 | 0.00 | 73 | 1019.9 |
| 20260503221317 | 11 | 0 | 1.6 | 4.8 | 0.00 | 0.15 | 0.00 | 72 | 1019.9 |
| 20260503220834 | 11 | 315 | 0.0 | 1.6 | 0.00 | 0.15 | 0.00 | 66 | 1020.0 |
| 20260503220317 | 11 | 315 | 0.0 | 1.6 | 0.00 | 0.15 | 0.00 | 66 | 1020.0 |
| 20260503215816 | 12 | 9 | 1.6 | 3.2 | 0.00 | 0.15 | 0.15 | 66 | 1020.0 |
| 20260503215316 | 12 | 0 | 0.0 | 0.0 | 0.00 | 0.15 | 0.15 | 66 | 1019.8 |
| 20260503214817 | 12 | 270 | 0.0 | 1.6 | 0.00 | 0.15 | 0.15 | 65 | 1019.9 |
| 20260503214317 | 12 | 128 | 1.6 | 1.6 | 0.00 | 0.15 | 0.15 | 65 | 1019.9 |
| 20260503213818 | 13 | 93 | 1.6 | 4.8 | 0.00 | 0.15 | 0.15 | 66 | 1019.9 |
| 20260503213318 | 13 | 270 | 0.0 | 3.2 | 0.00 | 0.15 | 0.15 | 67 | 1019.9 |
| 20260503212818 | 12 | 202 | 1.6 | 3.2 | 0.00 | 0.15 | 0.15 | 68 | 1019.8 |
| 20260503212316 | 12 | 140 | 1.6 | 3.2 | 0.00 | 0.15 | 0.15 | 70 | 1019.7 |
| 20260503211316 | 12 | 183 | 1.6 | 3.2 | 0.00 | 0.15 | 0.15 | 70 | 1019.7 |
| 20260503210817 | 12 | 221 | 0.0 | 1.6 | 0.00 | 0.15 | 0.15 | 70 | 1019.7 |
| 20260503210317 | 12 | 183 | 0.0 | 1.6 | 0.00 | 0.15 | 0.15 | 71 | 1019.8 |
| 20260503205817 | 11 | 96 | 0.0 | 1.6 | 0.00 | 0.15 | 0.15 | 71 | 1019.9 |
| 20260503205317 | 11 | 101 | 1.6 | 1.6 | 0.00 | 0.15 | 0.15 | 74 | 1019.8 |
| 20260503204817 | 11 | 225 | 1.6 | 1.6 | 0.00 | 0.15 | 0.15 | 75 | 1019.8 |
| 20260503203817 | 11 | 225 | 0.0 | 3.2 | 0.00 | 0.15 | 0.15 | 74 | 1019.8 |
| 20260503203317 | 11 | 270 | 1.6 | 3.2 | 0.00 | 0.15 | 0.15 | 74 | 1019.9 |
| 20260503202317 | 11 | 4 | 0.0 | 1.6 | 0.00 | 0.15 | 0.15 | 73 | 1019.9 |
| 20260503201817 | 11 | 270 | 1.6 | 1.6 | 0.00 | 0.15 | 0.15 | 71 | 1019.7 |
| 20260503201317 | 11 | 84 | 0.0 | 1.6 | 0.00 | 0.15 | 0.15 | 71 | 1019.9 |
| 20260503200317 | 11 | 90 | 0.0 | 3.2 | 0.00 | 0.15 | 0.15 | 75 | 1019.7 |
| 20260503195817 | 11 | 0 | 0.0 | 1.6 | 0.00 | 0.15 | 0.15 | 75 | 1019.8 |
| 20260503195317 | 11 | 15 | 1.6 | 4.8 | 0.00 | 0.15 | 0.15 | 74 | 1019.7 |
| 20260503194816 | 11 | 90 | 1.6 | 1.6 | 0.00 | 0.15 | 0.15 | 74 | 1019.7 |
| 20260503194316 | 11 | 0 | 0.0 | 1.6 | 0.00 | 0.15 | 0.15 | 73 | 1019.7 |
| 20260503193816 | 11 | 90 | 1.6 | 1.6 | 0.00 | 0.15 | 0.15 | 73 | 1019.6 |
| 20260503193316 | 12 | 90 | 1.6 | 1.6 | 0.00 | 0.15 | 0.15 | 70 | 1019.5 |
| 20260503192816 | 12 | 90 | 0.0 | 1.6 | 0.00 | 0.15 | 0.15 | 70 | 1019.4 |
| 20260503192325 | 12 | 0 | 0.0 | 1.6 | 0.00 | 0.15 | 0.15 | 69 | 1019.5 |
| 20260503191816 | 12 | 90 | 1.6 | 3.2 | 0.00 | 0.15 | 0.15 | 68 | 1019.3 |
| 20260503191316 | 12 | 84 | 1.6 | 1.6 | 0.00 | 0.15 | 0.15 | 67 | 1019.3 |
| 20260503190316 | 13 | 90 | 1.6 | 183.5 | 0.00 | 0.15 | 0.15 | 64 | 1019.1 |
| 20260503185318 | 13 | 79 | 1.6 | 1.6 | 0.00 | 0.15 | 0.15 | 64 | 1019.0 |
| 20260503184817 | 14 | 0 | 0.0 | 1.6 | 0.00 | 0.15 | 0.15 | 63 | 1018.8 |
| 20260503184316 | 14 | 135 | 0.0 | 1.6 | 0.00 | 0.15 | 0.15 | 62 | 1018.8 |
| 20260503183816 | 15 | 0 | 0.0 | 1.6 | 0.00 | 0.15 | 0.15 | 62 | 1018.7 |
| 20260503183317 | 15 | 315 | 0.0 | 3.2 | 0.00 | 0.15 | 0.15 | 61 | 1018.6 |
| 20260503182825 | 15 | 0 | 1.6 | 3.2 | 0.00 | 0.15 | 0.15 | 61 | 1018.5 |
| 20260503182316 | 15 | 90 | 1.6 | 3.2 | 0.00 | 0.15 | 0.15 | 62 | 1018.6 |
| 20260503181817 | 15 | 357 | 1.6 | 3.2 | 0.00 | 0.15 | 0.15 | 62 | 1018.4 |
| 20260503181316 | 14 | 182 | 1.6 | 3.2 | 0.00 | 0.15 | 0.15 | 63 | 1018.3 |
| 20260503180316 | 15 | 0 | 1.6 | 1.6 | 0.00 | 0.15 | 0.15 | 61 | 1018.2 |
| 20260503175816 | 15 | 15 | 1.6 | 3.2 | 0.00 | 0.15 | 0.15 | 61 | 1018.3 |
| 20260503175317 | 16 | 315 | 1.6 | 1.6 | 0.00 | 0.15 | 0.15 | 60 | 1018.1 |
| 20260503174817 | 16 | 0 | 0.0 | 1.6 | 0.00 | 0.15 | 0.15 | 55 | 1018.2 |
| 20260503174317 | 17 | 0 | 1.6 | 1.6 | 0.00 | 0.15 | 0.15 | 53 | 1018.1 |
| 20260503173816 | 18 | 90 | 1.6 | 1.6 | 0.00 | 0.15 | 0.15 | 51 | 1018.1 |
| 20260503173317 | 19 | 84 | 1.6 | 1.6 | 0.00 | 0.15 | 0.15 | 48 | 1018.0 |
| 20260503171816 | 20 | 226 | 1.6 | 1.6 | 0.00 | 0.15 | 0.15 | 42 | 1017.9 |
| 20260503171316 | 20 | 225 | 1.6 | 3.2 | 0.00 | 0.15 | 0.15 | 42 | 1017.9 |
| 20260503170819 | 20 | 246 | 1.6 | 3.2 | 0.00 | 0.15 | 0.15 | 41 | 1017.8 |
| 20260503150816 | 22 | 180 | 12.9 | 72.4 | 0.00 | 0.15 | 0.15 | 30 | 1017.4 |
| 20260503131316 | 24 | 179 | 4.8 | 12.9 | 0.00 | 0.15 | 0.15 | 28 | 1017.7 |
| 20260503130818 | 24 | 315 | 8.0 | 16.1 | 0.00 | 0.15 | 0.15 | 28 | 1017.6 |
| 20260503130317 | 24 | 205 | 3.2 | 9.7 | 0.00 | 0.15 | 0.15 | 30 | 1017.7 |
| 20260503110817 | 23 | 191 | 4.8 | 8.0 | 0.00 | 0.00 | 0.00 | 26 | 1018.2 |
| 20260503110316 | 23 | 200 | 4.8 | 8.0 | 0.00 | 0.00 | 0.00 | 26 | 1018.2 |
| 20260503081316 | 20 | 218 | 4.8 | 11.3 | 0.00 | 0.00 | 0.00 | 24 | 1019.4 |
| 20260503080816 | 20 | 180 | 8.0 | 11.3 | 0.00 | 0.00 | 0.00 | 24 | 1019.4 |
| 20260503080317 | 20 | 225 | 9.7 | 11.3 | 0.00 | 0.00 | 0.00 | 25 | 1019.4 |
| 20260503072817 | 18 | 224 | 3.2 | 11.3 | 0.00 | 0.00 | 0.00 | 34 | 1019.4 |
| 20260503071316 | 17 | 183 | 4.8 | 8.0 | 0.00 | 0.00 | 0.00 | 40 | 1019.7 |
| 20260503070816 | 16 | 225 | 1.6 | 3.2 | 0.00 | 0.00 | 0.00 | 42 | 1019.5 |
| 20260503070316 | 16 | 223 | 1.6 | 4.8 | 0.00 | 0.00 | 0.00 | 47 | 1019.6 |
| 20260503060319 | 12 | 135 | 1.6 | 3.2 | 0.00 | 0.00 | 0.00 | 53 | 1020.1 |
| 20260503054316 | 11 | 128 | 1.6 | 1.6 | 0.00 | 0.00 | 0.00 | 63 | 1020.2 |
| 20260503053816 | 10 | 90 | 1.6 | 3.2 | 0.00 | 0.00 | 0.00 | 66 | 1020.3 |
| 20260503052816 | 9 | 315 | 1.6 | 1.6 | 0.00 | 0.00 | 0.00 | 74 | 1020.0 |
| 20260503052316 | 8 | 180 | 0.0 | 0.0 | 0.00 | 0.00 | 0.00 | 78 | 1020.0 |
| 20260503051817 | 8 | 90 | 0.0 | 1.6 | 0.00 | 0.00 | 0.00 | 80 | 1019.9 |
| 20260503051317 | 7 | 90 | 1.6 | 1.6 | 0.00 | 0.00 | 0.00 | 81 | 1020.0 |
| 20260503050816 | 6 | 135 | 1.6 | 1.6 | 0.00 | 0.00 | 0.00 | 86 | 1020.1 |
| 20260503050316 | 5 | 315 | 0.0 | 1.6 | 0.00 | 0.00 | 0.00 | 85 | 1020.1 |
| 20260503045816 | 5 | 315 | 0.0 | 1.6 | 0.00 | 0.00 | 0.00 | 85 | 1020.1 |
| 20260503045316 | 4 | 135 | 0.0 | 1.6 | 0.00 | 0.00 | 0.00 | 84 | 1020.1 |
| 20260503044317 | 4 | 270 | 0.0 | 1.6 | 0.00 | 0.00 | 0.00 | 84 | 1020.0 |
| 20260503043817 | 4 | 315 | 0.0 | 1.6 | 0.00 | 0.00 | 0.00 | 84 | 1020.3 |
| 20260503043316 | 4 | 221 | 0.0 | 1.6 | 0.00 | 0.00 | 0.00 | 84 | 1020.2 |
| 20260503042817 | 4 | 180 | 0.0 | 1.6 | 0.00 | 0.00 | 0.00 | 84 | 1020.2 |
| 20260503041817 | 3 | 276 | 1.6 | 1.6 | 0.00 | 0.00 | 0.00 | 84 | 1020.2 |
| 20260503041318 | 3 | 90 | 1.6 | 1.6 | 0.00 | 0.00 | 0.00 | 83 | 1020.1 |
| 20260503040816 | 3 | 328 | 1.6 | 3.2 | 0.00 | 0.00 | 0.00 | 83 | 1020.1 |
| 20260503035816 | 3 | 90 | 1.6 | 1.6 | 0.00 | 0.00 | 0.00 | 82 | 1020.1 |
| 20260503034816 | 3 | 90 | 0.0 | 1.6 | 0.00 | 0.00 | 0.00 | 81 | 1020.1 |
| 20260503034325 | 3 | 90 | 1.6 | 1.6 | 0.00 | 0.00 | 0.00 | 81 | 1020.1 |
| 20260503033816 | 3 | 315 | 0.0 | 1.6 | 0.00 | 0.00 | 0.00 | 81 | 1020.0 |
| 20260503032816 | 4 | 90 | 1.6 | 1.6 | 0.00 | 0.00 | 0.00 | 80 | 1020.0 |
| 20260503032316 | 4 | 90 | 1.6 | 1.6 | 0.00 | 0.00 | 0.00 | 80 | 1019.9 |
| 20260503031816 | 5 | 90 | 0.0 | 1.6 | 0.00 | 0.00 | 0.00 | 80 | 1020.0 |
| 20260503031316 | 5 | 0 | 1.6 | 3.2 | 0.00 | 0.00 | 0.00 | 81 | 1020.1 |
| 20260503030815 | 5 | 0 | 1.6 | 3.2 | 0.00 | 0.00 | 0.00 | 81 | 1020.0 |
| 20260503030317 | 5 | 180 | 1.6 | 1.6 | 0.00 | 0.00 | 0.00 | 81 | 1020.1 |
| 20260503025816 | 5 | 274 | 0.0 | 1.6 | 0.00 | 0.00 | 0.00 | 81 | 1020.0 |
| 20260503025316 | 5 | 79 | 1.6 | 3.2 | 0.00 | 0.00 | 0.00 | 81 | 1020.2 |
| 20260503024316 | 5 | 90 | 1.6 | 3.2 | 0.00 | 0.00 | 0.00 | 82 | 1020.2 |
| 20260503023816 | 4 | 315 | 0.0 | 1.6 | 0.00 | 0.00 | 0.00 | 82 | 1020.2 |
| 20260503023317 | 4 | 0 | 1.6 | 1.6 | 0.00 | 0.00 | 0.00 | 82 | 1020.3 |
| 20260503022816 | 4 | 90 | 1.6 | 3.2 | 0.00 | 0.00 | 0.00 | 81 | 1020.3 |
| 20260503022316 | 4 | 90 | 1.6 | 4.8 | 0.00 | 0.00 | 0.00 | 81 | 1020.2 |
| 20260503021816 | 4 | 318 | 1.6 | 4.8 | 0.00 | 0.00 | 0.00 | 81 | 1020.3 |
| 20260503021315 | 4 | 93 | 1.6 | 3.2 | 0.00 | 0.00 | 0.00 | 81 | 1020.3 |
| 20260503020816 | 5 | 90 | 0.0 | 1.6 | 0.00 | 0.00 | 0.00 | 81 | 1020.4 |
| 20260503020316 | 5 | 90 | 0.0 | 3.2 | 0.00 | 0.00 | 0.00 | 82 | 1020.3 |